Lid_Strength_Index
2 2 3 4 4 5 5 6 7 6 6 6 3 2 1 1 1 0 0 -2 -2 -2 -2 -2 -2 -2 -1 -1 -0 0 1 1 1 2 2 2 3 3 3 3 3 3 3
3 3 4 4 5 5 5 6 7 8 8 7 5 4 2 3 2 1 1 0 -1 -2 -2 -2 -2 -2 -2 -1 0 1 1 2 2 2 2 2 3 3 4 4 3 3 3
3 3 4 5 5 5 5 6 6 8 8 7 6 5 5 5 4 3 3 2 1 -1 -2 -2 -2 -2 -2 -1 -0 0 1 1 2 2 2 3 3 4 4 4 4 4 4
3 4 4 4 4 4 4 5 6 7 8 8 8 7 6 5 5 4 4 3 3 2 0 -1 -2 -2 -2 -1 -1 -0 1 1 2 2 2 3 3 4 4 4 4 4 4
3 3 4 4 4 4 4 4 6 6 7 8 8 8 7 6 6 4 5 4 4 3 3 0 -1 -2 -2 -2 -1 -1 -0 1 2 2 2 3 3 4 4 5 5 4 4
2 2 3 3 3 4 4 5 5 6 6 7 7 7 7 7 7 7 5 4 5 4 3 2 0 0 -1 -2 -2 -1 -1 -0 1 1 2 2 3 4 4 5 5 5 4
1 2 2 2 3 3 3 4 5 6 7 7 8 7 7 8 8 8 7 6 5 5 4 3 3 2 1 -2 -2 -1 -1 -0 -0 1 1 2 3 3 4 5 5 5 5
1 1 2 2 3 3 4 5 5 7 7 7 8 8 9 8 7 7 8 7 7 6 5 5 4 4 4 2 1 -1 -0 -0 -0 0 1 1 2 2 3 4 4 4 5
3 2 2 2 3 3 4 5 5 6 7 8 7 7 10 9 9 8 8 9 8 8 6 5 5 5 5 4 3 1 0 0 -0 0 1 1 1 2 2 3 3 4 4
3 2 2 1 2 3 4 4 4 5 6 7 7 6 7 8 9 9 9 8 8 8 7 7 5 5 5 5 5 4 4 2 1 1 1 1 1 1 2 2 2 3 3
2 2 2 2 2 2 3 3 4 5 4 5 6 7 7 8 9 8 9 9 8 7 7 7 6 6 6 6 6 6 4 4 3 1 1 1 1 1 1 1 1 2 2
3 2 2 2 2 2 3 3 4 4 4 4 5 5 7 7 8 8 9 8 9 7 7 6 7 7 7 7 7 5 5 5 3 2 1 1 1 1 1 1 1 1 2
4 3 3 2 2 2 2 2 3 3 4 4 5 5 5 6 6 7 8 8 8 8 8 8 7 6 6 7 7 5 5 5 5 4 3 2 1 1 1 1 1 1 1
3 3 2 2 2 2 2 2 2 3 3 4 4 4 5 6 6 7 7 8 10 10 10 8 7 7 7 7 7 6 6 5 5 5 4 3 3 2 2 2 1 1 1
2 3 2 1 1 1 1 2 2 2 3 4 4 5 5 6 6 7 8 7 8 10 10 9 8 8 8 8 8 7 8 7 6 6 5 5 4 3 3 2 2 2 1
3 3 3 2 1 1 1 1 2 3 5 5 5 6 6 7 7 8 7 8 7 8 9 7 8 9 8 8 8 8 8 7 6 6 6 6 5 4 4 3 2 2 1
3 3 2 2 2 2 3 3 3 4 5 6 6 6 7 7 8 7 6 7 7 7 9 8 8 9 9 9 9 9 9 9 9 7 7 6 6 6 5 4 4 3 2
2 1 2 2 2 3 4 4 4 5 6 6 7 7 7 7 8 8 7 7 8 8 9 10 10 10 11 10 10 11 9 8 9 8 7 7 6 6 5 5 5 4 3
2 1 1 2 2 3 3 4 4 5 6 6 7 7 8 7 8 8 8 8 8 8 9 10 11 10 11 11 11 11 11 10 10 8 7 7 7 6 6 5 4 4 3
2 1 2 2 2 3 3 4 5 6 6 7 7 8 8 7 8 9 9 9 9 10 10 10 11 11 13 12 13 13 13 12 12 11 9 8 8 7 6 6 5 4 3
2 1 2 2 3 4 5 5 6 7 7 8 8 8 7 7 8 9 9 9 10 11 11 12 13 14 15 15 15 14 15 15 14 13 12 11 10 9 9 8 7 6 5
2 2 3 3 5 6 9 10 7 8 8 8 9 8 8 9 10 10 9 10 11 12 13 15 15 16 17 16 15 16 16 16 17 13 13 13 11 11 10 9 8 7 5
2 4 5 6 6 6 9 10 10 9 9 9 9 9 9 10 11 12 12 12 13 12 13 15 17 17 17 16 16 17 16 16 15 13 13 14 11 12 10 9 8 6 4
5 6 8 7 8 10 12 12 12 10 10 10 9 11 11 12 12 13 13 14 15 15 15 15 16 16 16 15 15 14 14 14 13 13 11 14 12 12 10 9 7 5 3
8 9 9 9 10 12 12 12 11 11 12 13 12 12 12 13 12 12 14 15 16 15 14 15 15 15 15 15 14 15 16 16 17 15 12 13 12 12 10 9 6 5 4
11 11 11 10 12 12 12 12 12 13 14 14 14 14 13 13 13 14 15 16 16 16 17 17 17 17 16 16 15 15 16 17 17 17 12 14 13 12 12 8 8 7 5